ECMWFFLT2_850_thetae_021.txt.gz
Theta_e
336 335 336 336 334 333 334 333 330 330 331 329 329 328 325 325 327 329 330 331 330 330 330 328 327 326 326 325 326 326 324 322 321 321 321 320 319 318 318 319 319 319 316 316 320 322 325 327 329 328 327 327 325 325 331 334 332 330 330 330 331 331
337 336 335 335 333 334 333 332 330 331 332 329 330 328 325 326 327 329 330 331 331 331 331 329 329 329 328 328 326 325 324 323 322 321 320 319 318 318 318 317 318 319 317 316 319 322 324 325 327 328 327 326 325 328 332 333 333 331 330 330 329 329
337 336 335 334 334 334 332 331 330 332 332 331 330 328 326 326 328 329 330 331 333 332 331 330 330 330 330 330 327 325 324 322 321 320 320 319 318 318 318 318 319 319 318 319 325 327 329 328 326 326 326 326 329 332 332 331 332 331 329 329 328 323
337 336 336 336 334 332 330 330 331 332 332 332 331 329 327 327 328 330 331 333 335 332 330 330 329 329 329 329 328 325 323 322 322 320 319 321 322 320 319 321 320 321 322 325 330 330 331 333 329 328 328 330 333 335 333 331 332 331 329 328 324 317
336 335 336 335 331 329 329 330 332 332 332 332 331 330 327 328 329 331 333 334 335 331 328 329 329 329 330 329 329 327 326 325 326 325 322 326 329 326 325 327 324 324 328 328 330 330 331 333 332 332 332 333 334 334 333 332 333 330 328 326 321 315
335 333 334 334 329 328 331 332 333 332 332 331 330 330 329 330 331 332 334 333 332 329 327 329 329 331 331 330 330 329 328 327 328 328 325 327 329 329 329 330 329 328 329 329 329 330 331 332 332 333 333 333 332 332 333 333 332 331 329 327 321 315
335 334 335 335 332 329 331 332 332 332 331 330 329 329 328 330 332 333 334 333 330 328 328 329 329 331 331 331 330 330 330 328 328 327 326 327 327 329 330 330 330 329 329 329 329 328 330 332 333 332 332 332 331 331 332 331 332 331 330 328 320 315
335 336 335 336 335 331 331 331 332 332 329 327 328 327 326 330 334 334 332 331 329 327 327 329 328 329 329 329 329 329 329 328 327 328 327 326 325 328 329 330 330 329 329 329 329 328 328 331 332 332 332 331 331 331 331 330 331 331 331 329 323 317
333 333 332 332 334 334 334 332 332 332 329 327 328 327 327 331 333 332 329 329 329 327 328 328 327 326 326 327 328 327 326 326 326 326 327 326 325 326 328 330 329 328 329 328 328 328 329 330 332 332 331 328 329 330 330 330 331 331 330 329 327 321
330 330 329 328 332 335 335 332 331 330 329 329 330 330 331 331 331 329 327 328 330 328 328 328 326 325 325 326 328 327 326 325 324 324 325 325 325 325 327 329 329 329 329 329 328 327 328 330 331 331 330 328 329 330 329 328 327 329 330 329 328 324
331 329 329 328 330 333 335 334 332 330 331 332 332 332 331 329 328 328 327 329 330 329 328 327 326 325 325 327 328 328 326 324 324 323 324 324 323 324 325 326 328 328 328 329 328 327 328 330 331 329 330 330 329 328 327 326 326 329 330 329 329 327
334 330 329 330 330 330 332 333 333 332 332 332 330 329 328 327 327 329 330 330 330 330 329 329 328 326 327 329 329 328 327 325 324 323 323 324 323 323 324 324 327 329 328 328 328 329 329 329 330 329 329 329 327 326 325 325 327 328 329 329 329 328
336 332 329 330 330 329 329 331 332 332 331 330 329 328 327 327 329 331 332 331 331 331 330 330 330 329 329 329 328 326 326 326 324 323 322 324 323 322 324 323 326 329 328 326 325 328 330 328 330 330 329 328 326 326 325 324 326 326 327 330 330 328
337 334 331 331 330 329 330 330 331 331 329 328 328 327 325 328 333 333 332 332 332 331 331 331 330 331 331 330 328 326 327 327 324 323 322 323 323 322 323 323 324 328 328 326 323 325 329 328 329 330 330 329 325 323 323 323 325 324 325 327 329 328
338 336 334 332 329 328 328 327 330 329 326 326 328 328 330 333 335 334 334 333 331 330 332 332 330 331 332 331 330 328 330 330 326 324 323 323 323 321 324 324 324 326 328 329 327 327 329 328 329 329 329 329 325 322 322 321 321 323 324 324 326 326
337 336 335 334 332 332 330 330 331 329 328 331 333 333 333 333 332 333 334 333 331 330 330 331 331 331 331 331 332 331 331 329 325 324 323 324 323 322 325 324 324 325 327 331 331 330 331 330 330 329 326 328 326 323 322 322 322 325 326 326 327 326
336 335 335 335 336 335 335 335 336 333 332 333 333 332 331 328 329 330 330 329 330 330 330 330 329 330 329 330 331 332 332 328 324 325 324 324 323 322 324 324 325 325 325 330 331 330 331 330 331 330 328 328 327 325 324 323 324 326 326 327 327 328
334 334 333 334 336 336 335 334 334 331 330 332 331 330 329 329 329 329 328 328 327 329 331 331 328 329 329 329 331 332 333 330 325 325 325 324 322 322 324 325 325 324 324 329 330 329 330 329 330 331 330 329 328 328 326 325 326 327 328 329 327 327
333 333 334 334 334 334 332 329 328 329 329 330 330 329 329 329 328 328 328 326 325 326 330 331 330 330 329 330 332 331 333 331 324 324 325 324 322 322 324 324 323 324 325 328 329 329 329 329 329 330 329 328 327 328 327 327 328 328 329 328 326 325
333 333 334 334 333 332 329 327 328 330 330 330 330 329 328 328 329 328 327 326 326 327 328 329 330 330 329 330 331 330 332 330 326 325 326 325 322 322 325 324 323 325 325 327 329 330 330 329 328 329 328 328 328 328 327 326 328 329 329 328 326 325
333 333 334 333 331 330 330 329 330 331 331 329 328 328 328 327 327 324 323 324 327 329 328 328 329 329 329 330 330 328 329 330 328 328 326 324 322 322 324 323 324 326 327 327 329 329 329 328 328 328 327 327 327 327 327 327 328 328 327 327 326 324
333 333 332 330 328 329 331 331 331 331 330 328 328 328 329 327 323 318 318 321 324 328 328 328 328 327 328 328 329 329 329 331 330 327 324 322 322 322 323 324 326 327 328 328 329 328 329 329 327 327 327 326 326 326 327 327 328 327 326 326 325 323
331 332 331 328 329 332 333 332 332 332 330 329 329 328 326 326 325 322 320 319 321 326 327 327 327 326 327 327 328 329 329 331 330 326 323 321 322 323 324 326 328 329 329 329 329 329 329 328 326 325 326 326 326 327 326 326 327 326 326 326 325 324
331 333 332 330 332 334 331 329 330 330 329 328 326 322 321 324 327 326 323 322 322 323 325 327 327 327 327 327 327 328 329 330 328 325 324 322 322 325 325 326 328 329 330 329 328 329 328 328 327 325 325 326 327 328 326 326 327 326 325 324 324 325
334 335 331 329 332 330 326 325 325 325 324 324 323 323 325 327 326 325 326 326 325 324 325 326 326 327 327 326 325 326 327 329 327 326 327 326 324 324 324 326 327 327 329 328 328 329 328 328 328 325 325 326 327 326 325 325 326 325 324 324 323 323
333 334 331 328 329 326 326 326 324 325 326 326 326 327 327 327 327 326 325 326 325 325 327 325 324 325 324 322 323 323 324 327 328 328 328 329 328 327 327 327 327 327 328 328 327 327 328 328 328 325 325 327 326 325 324 324 326 325 324 323 322 322
328 329 331 331 327 325 328 329 327 329 329 328 329 328 326 326 327 326 323 324 323 321 323 323 322 322 320 318 319 320 320 323 325 325 324 325 326 327 328 328 327 327 327 327 326 325 326 327 327 327 327 326 325 325 324 324 325 324 323 322 321 321
323 323 328 330 327 324 328 329 329 330 330 329 328 326 325 324 324 324 323 323 321 319 322 322 321 323 322 319 319 318 318 320 322 323 322 322 323 324 325 327 327 327 326 326 326 325 326 327 327 327 328 327 326 325 323 323 324 323 323 322 321 321
326 326 328 328 326 327 328 328 329 331 330 328 326 324 323 321 322 322 323 323 322 321 322 324 324 324 323 322 321 319 319 320 322 323 322 323 324 323 324 325 325 325 326 326 326 326 327 327 327 327 328 328 327 324 322 323 324 323 322 321 320 319
328 331 330 328 327 326 325 325 327 329 328 325 325 324 323 321 322 322 322 321 322 321 321 323 325 324 324 324 323 322 323 323 323 324 323 324 323 322 323 323 322 322 324 325 325 326 328 327 327 328 327 327 327 325 324 324 325 323 320 319 319 318
326 329 329 329 328 325 321 321 323 325 326 325 325 325 324 322 322 322 322 321 322 323 322 323 324 324 324 324 324 323 324 324 323 323 323 323 324 323 323 321 320 322 323 324 325 325 327 328 327 327 327 326 326 325 324 324 323 321 319 319 318 318
326 327 327 327 327 324 320 319 321 322 325 326 325 325 324 322 322 322 321 321 321 322 322 322 323 324 323 323 323 323 323 324 323 323 324 323 324 324 324 322 321 323 323 323 324 324 325 327 327 326 326 324 323 323 322 321 320 319 318 318 318 317
324 324 325 323 323 323 319 317 318 320 322 324 324 325 325 322 321 321 320 321 321 320 321 322 323 323 322 322 323 323 323 324 323 322 322 322 322 322 323 323 323 322 322 321 323 324 325 326 326 325 323 321 319 319 318 317 318 317 317 317 317 316
320 319 321 320 320 320 317 316 317 318 320 320 321 324 325 323 321 321 319 320 321 320 321 323 323 322 322 322 323 324 323 323 322 320 319 320 321 321 322 323 323 323 323 322 322 323 324 324 322 321 319 317 315 314 313 313 314 315 315 316 317 316
317 316 317 317 318 318 316 317 316 316 318 319 318 322 325 322 320 320 320 320 320 321 322 323 322 321 321 322 322 322 321 320 319 318 318 320 321 321 322 322 322 322 322 320 319 319 319 319 318 317 315 314 313 312 312 312 312 312 314 316 316 316
318 317 316 316 317 317 317 318 316 315 317 317 317 322 323 319 316 316 317 319 321 322 322 321 320 319 319 320 319 318 318 317 317 318 320 321 321 321 321 321 320 319 318 317 316 315 314 312 311 310 312 313 312 312 312 313 313 313 314 315 315 315
319 319 318 317 317 317 318 318 317 315 316 317 318 321 321 316 311 310 310 314 319 322 321 320 315 313 316 318 318 317 315 314 315 317 318 319 319 318 317 317 317 316 315 313 312 310 310 308 306 307 311 314 314 314 314 314 313 313 314 314 315 316

ECMWFFLT2_850_thetae_024.txt.gz
Theta_e
336 335 335 335 335 334 333 333 332 329 329 330 330 329 327 327 329 329 329 329 328 328 327 325 326 326 325 325 326 326 325 323 322 322 321 320 319 318 318 318 319 319 316 318 323 323 324 324 323 326 326 326 330 333 332 331 331 331 330 330 329 329
336 336 335 336 335 334 334 333 331 329 329 329 330 328 327 329 330 329 330 330 329 328 328 327 328 328 327 328 326 325 324 323 322 321 320 319 319 318 318 318 319 319 316 317 321 324 325 326 326 327 326 325 327 330 333 331 330 331 330 330 328 327
336 336 335 335 333 333 334 332 330 331 330 329 329 327 327 330 331 330 330 329 328 328 329 329 330 329 329 329 327 324 322 322 321 320 320 319 319 318 318 319 319 318 317 318 321 324 325 327 327 326 326 325 327 330 333 331 330 331 330 329 327 325
337 336 335 335 333 332 333 332 330 331 331 329 329 327 329 332 331 329 329 329 328 327 329 331 330 330 330 329 328 325 321 321 321 320 319 322 323 320 320 321 321 321 323 325 326 327 329 330 327 326 325 327 330 332 332 331 331 330 329 329 327 322
336 335 334 333 332 332 332 332 331 331 331 330 329 329 332 332 328 326 329 328 327 327 329 330 330 329 329 329 328 326 324 323 325 324 322 326 328 325 325 324 324 327 329 329 331 330 331 332 330 328 327 329 333 333 332 331 331 330 329 329 326 318
336 335 335 333 333 333 332 332 331 330 332 331 331 332 331 330 327 326 328 327 325 326 328 328 328 329 329 328 328 326 326 326 327 327 326 327 328 328 328 328 327 329 329 329 331 330 331 332 332 331 331 332 333 333 332 331 331 330 329 329 325 318
336 336 335 334 334 333 331 330 330 331 331 332 333 332 330 328 329 328 328 327 325 326 327 327 328 328 329 328 327 326 326 326 327 327 326 327 327 327 328 329 329 328 330 329 329 329 330 332 332 331 332 332 331 331 331 330 330 330 330 329 324 318
337 336 335 334 332 329 330 330 330 331 331 332 333 331 329 328 329 329 328 329 328 327 327 327 328 328 328 328 328 327 325 326 327 326 326 327 326 325 327 328 329 328 329 328 328 328 329 330 331 331 331 331 331 330 330 330 328 328 329 329 326 321
335 335 334 332 327 328 330 330 330 331 331 332 331 328 327 327 329 329 328 330 329 327 327 327 327 327 326 326 326 326 325 324 326 326 327 328 326 325 326 327 327 327 327 327 328 328 328 329 331 331 331 331 331 330 330 329 328 328 328 329 328 323
332 335 334 331 329 330 331 330 331 331 331 330 328 327 328 328 331 331 330 330 328 327 328 327 328 327 327 325 324 325 325 324 325 325 325 326 326 326 327 326 325 326 326 327 327 328 328 329 331 331 330 330 330 329 330 329 329 330 328 328 328 325
333 335 334 332 332 332 331 331 331 329 329 328 327 329 329 329 331 331 330 329 327 326 328 329 329 329 328 327 326 326 326 325 325 324 324 325 325 324 326 326 324 325 325 326 328 327 327 329 330 330 330 329 329 329 329 329 330 330 328 328 328 326
334 334 333 332 333 334 333 332 330 330 331 329 329 330 330 329 328 327 327 327 327 328 328 328 328 328 328 328 328 327 327 327 325 324 323 324 324 323 324 325 323 325 326 326 328 328 327 329 328 328 329 328 328 328 328 328 329 329 329 329 329 328
335 334 333 331 333 334 334 333 331 331 332 331 331 331 329 327 325 326 327 326 325 328 329 328 328 327 329 330 330 329 329 328 326 324 323 323 324 322 323 325 323 325 327 326 328 328 328 329 327 326 328 328 327 328 328 329 329 329 329 329 328 329
335 335 334 332 331 334 335 334 332 331 332 331 330 329 327 326 326 328 329 327 326 328 330 329 329 329 329 330 329 329 329 327 326 325 323 323 324 322 323 324 323 324 326 325 326 328 329 328 327 326 327 328 327 327 328 329 328 327 328 329 329 329
335 334 334 334 332 332 333 333 332 332 331 329 328 327 326 326 326 328 328 327 326 328 330 330 330 330 330 330 328 328 328 327 326 326 324 323 323 322 323 324 322 324 326 325 326 327 328 327 327 328 328 327 325 324 326 328 327 324 323 328 329 329
335 334 334 333 332 331 330 329 329 328 328 326 326 326 326 324 324 326 329 328 327 328 329 330 331 330 329 330 329 328 329 328 326 326 325 324 323 322 323 324 323 325 325 325 325 326 328 327 325 327 327 325 323 322 322 323 326 325 323 326 328 327
335 334 333 333 332 330 329 327 326 325 324 324 325 325 326 325 325 325 327 328 328 328 328 329 330 329 329 330 329 328 329 329 326 326 326 325 324 322 323 324 323 324 325 324 325 327 328 327 325 326 327 325 323 322 322 321 324 326 326 327 328 327
335 334 332 331 330 328 327 326 324 323 323 325 326 326 327 328 328 327 327 329 328 328 328 329 328 328 328 328 328 328 330 329 327 326 326 326 325 322 322 325 324 324 325 324 325 327 328 328 327 326 325 325 324 324 323 322 325 328 328 328 328 329
334 333 332 329 326 326 326 324 323 325 327 328 328 327 328 328 328 329 330 329 328 328 330 329 328 328 327 326 328 329 328 329 328 326 325 326 325 323 322 324 325 324 324 325 327 329 328 328 328 327 325 325 324 324 324 324 327 328 329 329 328 328
332 331 330 326 323 325 325 325 326 328 329 329 328 328 329 328 329 330 329 328 328 329 330 329 328 327 326 326 327 328 326 328 328 325 324 325 324 322 321 323 325 323 322 324 327 329 328 328 328 327 326 325 324 325 326 327 328 329 329 328 327 327
332 330 326 323 323 324 323 326 328 328 329 329 327 327 327 328 328 327 326 327 329 329 330 330 329 328 328 327 327 327 327 328 328 324 323 325 324 322 322 322 323 323 322 324 327 327 327 328 329 328 327 326 325 325 326 327 328 328 328 327 327 326
333 332 329 326 326 326 325 328 329 329 329 326 327 328 327 325 323 320 321 326 329 329 329 329 328 329 328 328 326 327 328 328 327 325 325 326 324 322 322 322 322 322 322 323 325 327 328 329 329 328 327 326 326 326 326 327 327 327 327 326 325 324
333 333 331 330 330 329 328 329 329 328 328 328 329 328 325 326 324 320 321 324 327 329 330 329 329 328 328 328 326 326 327 326 326 326 325 324 323 322 322 322 322 322 322 322 323 325 327 327 328 328 326 325 326 326 326 327 327 326 327 327 325 324
332 330 330 331 331 331 330 330 330 329 328 327 325 321 320 326 328 325 325 324 324 326 329 329 330 329 328 327 326 328 327 325 326 326 325 323 322 322 322 322 322 321 322 324 323 322 324 325 327 327 326 326 326 326 326 327 326 324 325 325 325 324
330 328 331 331 329 332 332 329 328 327 323 322 323 324 323 324 326 327 327 326 325 326 326 326 328 329 329 328 327 328 327 326 326 325 324 323 322 322 323 323 323 323 322 323 323 321 322 325 326 325 325 326 327 327 326 325 325 324 324 324 324 323
325 325 328 326 324 330 329 323 324 324 325 326 327 328 326 325 327 326 327 327 326 328 327 325 326 325 324 326 327 325 325 325 325 324 324 325 324 324 324 324 325 326 324 324 325 323 324 325 325 325 325 326 326 326 326 325 325 325 323 323 323 322
323 323 323 323 326 329 326 323 327 328 329 330 328 326 326 327 328 325 325 325 322 324 325 324 324 323 320 322 323 323 323 323 323 323 323 324 325 326 327 326 327 327 326 326 327 327 326 325 324 324 324 326 327 326 325 325 325 324 323 322 322 321
325 325 320 322 325 324 320 322 328 329 329 328 325 322 322 324 324 322 322 323 321 323 325 324 324 325 323 322 322 324 324 323 324 322 321 322 324 325 326 327 328 327 326 327 327 327 326 324 323 324 324 325 327 326 324 324 325 324 323 322 321 321
326 325 320 321 322 320 319 320 326 328 327 325 320 319 321 320 317 316 318 322 323 323 323 323 325 324 324 323 322 324 324 324 325 324 322 323 325 324 325 327 327 327 326 325 324 324 324 324 324 324 324 325 326 325 324 324 324 323 322 322 320 319
325 323 321 322 320 320 321 320 324 326 323 322 321 322 321 316 314 317 318 320 322 322 321 322 324 324 324 325 324 324 325 323 323 324 324 324 324 323 324 326 326 324 325 324 323 323 323 324 326 326 325 325 325 324 324 324 323 322 322 322 319 317
321 320 323 324 322 321 321 321 323 324 321 321 321 321 318 314 317 321 320 320 322 323 323 322 322 323 323 324 322 322 325 323 321 323 324 323 323 324 324 325 323 322 323 322 322 323 322 323 326 326 325 325 324 323 323 322 321 321 321 320 318 318
320 321 324 324 322 321 321 321 322 322 320 319 318 318 316 316 320 322 320 322 322 321 323 322 323 323 322 323 322 321 324 324 322 323 323 322 324 324 324 324 322 322 322 321 323 324 324 324 326 325 324 324 323 322 321 321 320 320 320 318 317 318
322 324 323 322 321 320 321 321 321 321 319 318 319 319 318 318 321 322 320 321 321 321 322 323 324 323 320 322 323 322 324 324 322 323 323 322 323 324 324 324 324 324 323 322 323 324 324 324 324 322 321 321 321 320 320 319 319 319 319 317 317 316
323 325 324 322 320 320 320 319 318 319 319 319 319 321 321 319 320 321 319 319 320 321 322 323 323 322 321 323 324 323 324 323 323 322 322 323 323 323 324 325 324 324 324 323 323 323 323 322 320 319 318 317 317 318 317 317 317 317 318 317 316 315
325 326 323 321 320 319 319 317 317 318 319 319 318 322 324 321 320 320 317 318 321 322 323 324 323 321 321 323 323 322 322 323 323 322 321 323 323 323 324 323 322 322 322 322 322 322 322 320 319 317 316 315 315 315 315 315 315 315 316 316 316 316
325 326 323 320 319 319 318 317 317 317 318 319 319 321 324 322 319 317 315 318 320 320 321 322 321 318 317 318 319 320 321 321 322 322 322 322 323 322 322 321 320 319 318 318 319 319 319 318 316 314 313 313 313 313 313 313 313 315 316 316 316 315
326 325 322 319 319 319 319 319 318 316 317 318 319 321 322 321 317 313 313 316 316 316 317 317 316 314 313 314 315 318 318 318 320 322 321 322 321 321 320 318 317 316 315 314 312 311 310 311 312 312 313 313 313 313 313 313 314 315 315 315 315 315

ECMWFFLT2_850_thetae_030.txt.gz
Theta_e
327 326 326 325 325 326 329 330 331 331 330 329 326 325 326 327 326 326 326 327 327 327 326 326 325 324 325 325 325 324 324 322 321 321 320 320 319 319 318 320 320 317 320 321 317 318 324 332 334 333 333 332 331 331 331 331 330 330 329 327 323 318
327 326 326 327 328 328 330 331 332 331 330 329 326 324 326 327 327 327 326 327 326 326 325 325 324 325 326 325 324 323 322 321 320 320 319 319 318 318 317 318 319 317 320 321 318 318 326 333 334 333 332 331 331 331 331 331 330 330 329 327 323 317
328 327 327 329 330 330 331 332 332 331 330 329 325 323 327 328 327 328 327 327 326 326 326 326 327 327 326 324 322 321 320 320 320 319 319 319 318 318 318 318 318 317 322 324 321 322 328 333 333 332 332 331 330 330 330 330 330 330 329 328 325 319
328 328 329 331 331 332 332 332 331 330 329 328 324 324 327 328 328 328 328 327 327 327 328 329 330 328 327 326 324 322 321 320 319 319 320 319 318 318 317 317 317 318 324 326 325 325 329 333 332 332 332 331 330 330 330 330 330 329 329 327 327 324
329 330 331 332 332 332 332 330 330 329 328 326 323 323 327 327 329 329 328 328 328 328 328 329 329 328 327 327 325 325 324 323 322 322 323 321 320 319 319 319 318 321 327 327 326 326 329 332 332 331 331 331 330 329 330 330 330 329 329 328 328 324
330 331 332 333 332 332 331 328 328 328 326 324 323 324 327 328 329 329 328 328 328 328 328 328 328 328 327 325 325 325 325 325 325 326 326 326 324 322 322 323 321 325 329 328 327 326 327 330 330 329 328 328 328 328 330 331 330 330 329 328 326 320
332 332 333 333 332 331 330 328 326 327 325 323 323 325 327 328 329 330 328 328 326 326 328 327 327 327 326 325 325 324 324 325 325 326 326 327 327 325 325 327 327 329 330 328 327 326 326 327 328 328 327 328 328 329 331 331 330 330 329 327 324 318
333 333 334 334 332 331 330 328 326 326 325 323 324 326 327 329 329 329 329 327 325 325 327 327 327 327 326 326 325 325 325 324 324 325 325 325 327 327 327 328 329 330 330 328 327 327 327 327 326 327 328 329 330 331 331 331 331 330 330 327 324 319
334 334 334 334 332 331 330 327 326 326 325 324 326 328 328 329 330 329 328 327 325 325 326 327 327 327 326 325 326 326 325 323 323 324 325 325 325 326 327 328 329 329 329 328 328 328 329 328 328 328 329 329 330 331 331 331 331 330 329 327 324 319
334 334 335 334 332 330 329 327 327 327 326 326 328 329 329 329 329 329 328 328 327 327 326 326 326 326 326 325 325 325 325 324 324 324 325 325 325 325 326 327 328 328 328 328 328 328 328 328 328 329 329 329 330 331 331 330 330 330 328 327 324 320
334 335 335 333 332 331 330 328 328 328 328 328 329 329 328 329 330 329 328 328 328 328 326 326 326 326 326 325 325 323 324 325 324 323 323 324 325 324 325 326 327 327 327 327 327 327 328 327 327 329 329 329 330 331 331 330 329 329 328 327 324 320
335 335 335 333 332 331 330 328 328 329 330 330 329 329 327 328 329 329 329 329 328 328 326 326 327 327 326 326 325 324 324 325 325 323 323 323 323 324 325 325 325 327 327 327 327 327 327 327 327 328 327 329 330 330 329 328 328 329 329 327 324 321
335 335 334 333 332 331 330 329 328 329 331 332 330 327 326 327 328 328 329 328 327 327 325 325 327 327 328 326 325 325 325 325 325 324 323 322 323 323 324 325 325 326 327 327 327 327 327 327 328 328 327 328 329 328 327 327 328 329 328 327 325 323
336 335 335 333 332 330 329 329 330 329 331 331 328 326 326 327 328 327 327 326 326 325 324 325 327 328 328 327 326 326 326 325 325 325 323 322 323 323 323 324 325 325 327 328 327 326 326 327 328 328 327 327 327 328 326 326 327 327 328 328 326 326
335 335 334 333 331 330 329 330 330 330 330 329 326 326 328 329 327 326 326 326 326 326 325 326 328 329 328 328 327 326 327 327 326 326 324 323 323 323 323 323 324 325 327 327 327 326 327 327 327 326 325 325 326 327 326 326 326 326 327 328 326 326
335 334 334 333 331 329 330 330 330 330 330 328 326 328 330 329 327 326 327 327 328 328 327 327 328 329 329 328 328 328 327 327 326 325 325 323 322 323 322 323 324 326 326 326 326 326 326 327 326 326 325 325 326 326 326 326 326 325 327 327 326 326
334 333 331 331 330 330 330 330 330 330 330 329 328 329 329 328 327 326 327 328 328 328 327 327 328 328 329 329 329 328 327 327 327 326 325 323 322 323 322 323 324 326 327 326 326 326 326 326 326 326 326 325 324 324 325 325 324 324 325 326 326 326
334 332 330 329 330 332 332 331 331 331 330 330 329 329 328 327 326 326 326 327 327 327 327 326 327 328 328 328 328 328 328 327 327 327 325 324 323 323 322 323 324 326 327 326 326 326 326 325 325 325 324 323 323 323 323 324 323 324 325 325 324 323
332 331 330 330 331 333 333 331 332 332 330 329 328 328 328 327 327 327 327 326 325 326 326 326 326 327 327 327 327 328 328 328 328 327 325 324 323 322 322 323 324 325 327 327 326 326 325 325 325 323 322 322 323 323 324 324 324 324 326 325 324 323
330 330 331 332 333 334 333 332 331 330 328 328 328 328 328 328 326 325 325 324 324 325 326 325 325 327 326 326 326 327 328 328 328 327 325 324 324 322 322 323 324 325 327 327 327 326 325 325 324 324 324 324 324 324 324 325 325 325 326 326 325 325
329 329 331 332 333 332 331 331 329 327 327 328 329 328 327 328 325 323 324 324 325 325 325 324 324 326 326 326 326 327 328 328 328 327 325 325 325 323 322 323 324 325 326 327 327 326 326 325 324 325 325 325 325 324 325 326 326 326 325 324 323 324
327 328 331 331 330 329 328 327 326 326 328 328 328 327 325 326 325 322 325 326 325 325 325 324 325 326 326 326 326 327 328 327 328 327 325 324 325 324 322 323 324 324 324 326 327 326 327 327 325 325 324 325 326 326 326 326 325 324 323 322 321 321
326 328 330 328 326 325 325 326 326 327 328 328 327 326 324 325 323 321 324 326 325 325 325 325 326 327 326 326 326 327 326 327 327 326 325 323 325 324 322 322 324 324 323 325 327 327 327 328 326 325 325 325 326 326 326 325 324 323 323 323 323 323
327 328 328 326 324 324 326 328 328 328 328 327 327 327 326 324 321 320 323 325 326 326 325 325 325 326 325 325 326 326 326 327 326 326 324 323 325 324 322 322 323 324 323 323 326 327 327 327 326 325 325 326 326 326 326 325 324 324 324 324 325 324
328 328 325 324 324 326 328 329 329 329 328 327 327 327 326 322 319 320 321 324 327 327 326 325 323 323 323 324 325 325 325 326 325 326 325 324 325 324 322 322 323 323 323 322 323 325 326 327 327 326 325 325 326 326 326 325 325 324 324 324 324 324
327 326 324 323 325 328 329 328 327 327 326 325 325 324 321 318 319 320 321 322 325 325 325 325 324 323 322 323 325 325 324 324 324 325 325 324 324 323 322 322 322 323 323 322 322 323 324 326 327 327 325 324 325 326 325 324 324 323 323 323 323 324
325 324 324 324 326 327 328 327 324 322 321 321 320 319 318 318 319 320 319 320 320 320 320 321 322 322 323 323 323 325 324 324 323 323 323 323 322 322 323 322 323 323 322 321 322 323 324 325 326 327 326 324 324 325 324 323 323 323 322 322 323 323
323 323 324 325 326 325 325 325 324 322 322 320 316 314 316 318 318 317 316 315 314 315 315 316 316 317 320 320 321 323 323 322 322 323 323 323 322 322 322 323 323 323 323 323 323 324 324 324 325 326 325 325 325 324 324 323 323 322 322 322 323 322
322 323 325 326 326 326 326 325 325 325 325 323 315 311 315 316 315 314 312 311 311 311 312 312 312 314 315 316 319 322 321 321 322 322 323 324 324 324 323 323 324 325 325 325 324 324 323 323 323 324 324 325 325 324 324 323 322 322 321 322 322 322
322 323 324 325 327 328 328 327 326 326 326 322 313 312 317 317 315 312 310 311 311 310 311 312 314 316 315 314 318 320 320 320 321 322 323 323 324 326 326 325 326 326 325 325 325 324 323 323 323 324 324 324 325 325 324 323 322 321 321 321 321 321
322 323 324 326 328 329 328 328 327 328 325 319 312 314 317 318 316 312 311 314 313 312 313 316 320 321 319 317 319 320 319 318 319 321 322 322 322 323 324 326 326 325 323 324 325 324 324 324 324 324 324 324 324 324 324 323 322 322 321 321 320 319
323 324 326 327 327 328 328 327 328 326 321 315 312 313 314 315 313 311 312 315 314 314 315 318 322 323 322 322 322 321 321 320 319 321 322 323 322 321 321 324 325 323 321 322 323 323 323 324 323 323 323 324 324 324 324 323 322 322 321 321 320 317
325 325 326 326 327 327 326 327 325 321 317 315 313 312 312 312 311 310 313 315 315 315 314 316 321 323 324 323 322 321 321 322 322 322 322 323 323 321 321 323 324 322 320 320 321 322 322 323 323 323 323 324 324 324 324 324 323 322 320 319 318 314
325 325 325 326 327 326 326 326 323 320 319 317 312 310 310 309 309 311 314 316 314 314 314 314 317 321 322 321 320 319 320 321 322 323 322 322 321 321 322 323 322 320 319 320 321 321 323 324 324 323 323 324 324 324 324 323 322 322 318 315 312 310
325 325 325 327 328 326 325 326 322 322 322 316 311 310 309 309 310 312 314 316 315 315 316 314 314 316 317 316 317 318 319 319 319 320 320 319 321 322 321 321 320 318 318 320 322 322 323 324 323 323 322 322 323 323 324 323 322 321 317 311 310 310
326 325 326 326 325 323 321 321 322 323 321 316 312 311 311 312 312 313 315 315 315 317 317 316 314 312 312 314 316 317 318 318 317 318 318 318 321 322 321 321 320 318 319 321 323 323 323 322 321 320 318 318 319 320 322 322 322 322 318 313 311 312
324 324 325 324 322 320 318 321 324 324 319 316 314 314 315 315 313 314 316 316 316 316 317 316 314 311 311 314 316 317 318 318 317 317 318 319 321 322 322 322 321 320 321 322 323 322 321 321 320 318 314 313 315 316 318 320 321 321 319 315 312 311

ECMWFFLT2_850_thetae_033.txt.gz
Theta_e
332 332 330 328 327 324 326 330 330 330 329 328 327 326 324 323 325 329 330 330 329 328 329 328 326 326 325 325 324 323 323 322 322 322 322 322 321 322 322 320 320 319 317 321 331 333 333 333 330 330 330 331 331 331 330 329 328 328 327 322 317 316
329 328 327 327 326 325 328 330 330 330 329 327 326 326 325 324 325 327 328 328 327 327 326 325 325 325 325 324 323 322 322 321 321 321 321 320 320 320 320 321 319 320 318 319 328 333 333 333 331 330 330 330 331 330 330 328 328 328 328 325 321 319
327 326 326 326 325 327 329 330 330 331 329 326 326 326 326 326 325 326 327 326 326 325 324 324 325 326 325 323 322 321 321 320 320 320 320 319 319 318 318 320 318 320 319 318 326 331 333 333 332 331 330 330 330 330 329 328 328 329 328 326 325 323
327 326 326 326 326 328 330 330 331 330 329 327 325 326 327 326 326 326 326 326 325 325 325 326 326 326 323 321 321 321 320 319 320 319 319 319 319 318 318 318 318 320 319 317 322 328 332 333 332 331 330 330 330 329 329 329 329 329 328 327 327 323
327 327 326 326 327 329 330 331 331 330 329 327 325 325 327 327 327 327 326 326 326 327 327 327 327 326 324 322 320 320 319 319 320 320 319 319 318 318 317 317 318 320 320 318 319 326 332 333 332 331 330 330 330 330 329 329 329 329 329 328 325 319
327 327 327 327 328 330 331 332 332 330 329 327 324 325 327 328 328 327 327 327 327 328 328 327 327 327 325 324 323 322 322 322 323 323 322 320 319 319 318 317 318 321 322 320 321 328 332 332 332 331 330 330 330 330 330 330 330 329 329 327 322 316
327 327 328 328 329 331 332 332 331 330 329 327 324 325 327 328 328 327 326 327 328 328 327 327 327 326 325 325 325 325 325 325 325 326 325 323 321 321 321 319 319 323 324 323 325 329 331 331 331 331 330 330 330 330 330 330 330 329 329 326 320 316
328 328 329 329 331 332 332 331 330 329 328 327 324 325 327 328 329 327 326 326 327 328 326 326 326 326 325 325 325 325 325 325 326 326 327 326 325 325 324 322 322 324 326 326 327 329 330 330 330 330 329 329 329 330 330 330 330 330 329 325 320 316
329 330 330 331 332 332 331 328 328 328 328 326 324 326 327 328 329 328 327 325 325 326 326 325 326 326 326 326 325 325 324 323 324 325 326 327 327 327 327 326 325 325 326 327 328 328 328 329 329 328 328 327 328 330 330 330 330 330 328 324 320 316
330 331 331 332 332 332 330 327 326 328 327 324 324 326 327 328 329 328 326 325 324 325 326 326 326 327 326 326 325 325 324 323 324 325 325 326 327 327 328 328 328 327 327 328 328 328 328 328 327 327 326 326 327 329 331 330 330 329 327 325 321 316
327 328 330 332 333 332 331 328 327 328 326 323 325 327 327 328 329 328 326 326 325 325 326 326 326 327 326 325 325 323 323 324 323 324 325 325 325 325 326 328 328 328 328 328 328 328 328 328 327 326 326 327 328 329 330 330 330 329 328 326 321 317
328 329 331 332 332 332 331 329 328 327 325 324 327 328 328 328 329 328 327 327 327 327 326 326 327 327 326 325 325 322 323 324 324 323 324 325 324 324 325 326 327 328 328 327 328 327 327 328 327 327 327 328 329 329 329 329 329 329 328 325 321 318
332 332 333 333 333 332 331 329 328 327 325 326 328 328 327 328 329 328 328 328 329 328 327 327 328 327 327 326 325 324 323 324 325 323 323 323 324 323 324 325 325 327 327 327 327 327 327 326 326 327 327 328 328 328 328 329 329 328 327 324 322 320
334 333 333 333 333 332 331 329 328 328 327 328 329 328 328 328 328 329 329 329 329 329 328 328 328 328 328 327 326 325 324 324 325 325 323 323 323 323 323 325 325 326 327 327 327 326 326 326 326 327 327 327 327 328 328 328 328 328 327 325 323 322
334 334 334 334 333 332 331 329 329 330 329 330 330 329 328 327 328 329 329 328 328 328 328 328 329 329 328 328 327 326 325 325 326 326 323 322 323 322 323 324 324 325 326 327 327 326 326 326 326 327 327 326 327 328 328 328 328 328 327 326 325 324
335 334 334 334 334 333 332 330 329 330 331 331 330 328 327 327 329 329 328 327 328 328 328 328 329 329 329 328 327 327 326 326 326 326 324 322 323 322 322 324 324 325 326 326 326 326 326 326 325 325 326 327 328 328 327 327 327 328 328 326 326 325
335 335 335 334 334 333 332 330 330 330 330 331 329 327 327 329 329 328 327 328 329 329 328 328 328 328 329 329 328 328 327 327 327 326 325 322 322 322 322 322 323 325 326 325 325 325 325 326 325 324 326 328 328 327 327 327 327 327 328 327 326 326
335 335 335 334 334 333 331 330 330 330 329 329 328 327 329 330 329 328 328 329 328 328 328 328 328 328 329 329 329 329 328 328 327 326 325 323 322 322 322 322 323 323 325 325 325 325 325 326 325 325 326 327 326 326 326 327 326 327 327 327 327 326
335 335 335 335 334 333 331 330 330 330 330 330 328 329 329 329 329 328 328 328 328 328 328 328 328 329 329 329 329 328 328 328 327 327 325 323 322 322 322 323 324 324 325 326 326 326 325 325 325 324 324 324 324 324 325 326 326 326 326 325 324 323
333 335 334 333 334 332 331 331 331 331 331 331 330 329 329 328 328 328 328 328 327 327 328 328 328 329 329 328 328 327 328 327 327 327 325 324 323 322 322 323 324 325 325 325 326 326 325 325 323 322 323 323 323 324 325 325 325 325 325 324 324 323
333 335 332 329 330 330 330 331 331 331 331 330 329 328 327 327 327 327 328 327 326 326 328 328 327 328 328 328 328 328 327 326 327 328 326 325 324 322 322 324 324 325 326 325 326 326 325 324 323 322 323 323 324 325 325 325 325 325 324 324 324 324
333 333 330 327 328 330 330 330 331 331 330 328 327 327 326 326 325 325 326 326 326 326 326 327 326 326 327 327 327 328 327 326 327 327 326 325 325 323 322 324 324 324 326 326 326 326 326 325 323 323 323 324 325 326 326 326 325 323 322 321 322 323
333 330 327 328 330 331 331 331 331 330 328 327 328 327 326 326 324 324 325 325 326 326 325 326 326 326 326 326 326 327 326 326 326 327 326 326 325 323 322 323 324 324 325 326 326 325 326 325 325 324 324 324 326 327 326 325 323 322 322 321 321 322
331 328 327 330 332 332 332 331 330 328 327 328 328 327 327 326 322 323 325 325 325 326 325 324 325 326 325 325 325 326 326 325 325 326 326 325 325 324 322 322 324 324 324 325 326 325 326 326 326 325 324 325 326 326 325 325 324 323 323 323 322 323
329 328 330 332 332 333 332 330 328 327 328 328 328 327 327 325 320 321 323 324 325 325 325 324 324 325 325 325 326 326 325 325 324 325 325 324 324 325 323 322 324 324 324 324 325 326 326 327 327 325 324 324 325 325 324 324 324 324 324 324 323 323
329 329 331 332 332 331 330 328 326 327 328 327 327 326 325 321 318 320 321 324 325 325 324 323 322 323 324 325 325 325 325 324 324 325 325 324 325 324 322 322 323 324 324 323 324 326 326 327 327 325 325 324 324 324 324 323 323 324 324 324 324 324
328 329 331 331 331 329 327 326 326 327 327 325 324 324 323 320 318 320 321 323 325 325 324 323 322 322 323 324 325 325 324 324 324 325 324 324 324 323 322 322 322 323 324 323 323 324 326 326 326 326 325 324 323 324 324 323 323 323 323 324 324 324
327 329 331 330 328 326 326 326 327 326 324 323 323 322 322 320 319 320 320 321 321 321 322 323 323 322 322 323 324 324 323 323 323 324 323 323 323 323 322 322 322 322 323 322 322 322 324 325 325 326 326 324 324 324 324 323 323 323 322 323 324 323
328 330 330 327 325 326 327 327 326 324 322 323 324 323 321 319 319 320 318 317 317 317 318 319 321 322 322 321 320 321 322 321 321 322 322 322 322 322 322 322 322 322 322 322 321 322 324 324 325 326 326 324 324 324 324 323 322 322 321 323 323 323
329 330 328 325 325 327 328 327 325 323 323 325 325 322 320 320 319 317 314 313 313 314 315 316 318 318 319 318 317 318 320 320 321 321 322 322 322 321 322 323 323 323 323 323 323 323 323 324 324 326 326 325 324 324 324 323 322 322 321 322 322 322
330 329 325 324 326 328 328 327 325 325 325 326 324 319 317 318 316 313 311 312 313 313 315 315 315 315 315 314 315 317 319 319 320 321 321 322 323 323 323 323 324 325 325 325 324 324 324 323 323 325 326 325 324 323 323 323 322 322 322 321 321 321
328 327 324 324 327 329 329 328 326 326 326 326 321 314 314 315 314 312 312 314 315 315 316 316 317 317 315 313 313 315 317 318 318 319 319 320 322 324 324 324 325 325 325 325 324 324 324 323 323 324 324 324 324 324 323 323 322 322 322 321 321 321
326 325 323 325 327 329 329 328 327 327 327 326 321 313 314 315 313 312 312 314 315 316 316 316 318 320 320 319 317 315 314 314 316 317 319 320 320 321 322 323 326 325 323 323 324 324 323 323 324 324 324 324 324 325 324 323 323 322 322 321 321 320
326 324 324 326 328 329 330 328 327 327 326 327 322 315 314 313 311 312 313 314 314 314 315 315 317 320 322 322 320 317 314 313 315 318 320 321 321 320 321 323 325 324 321 322 322 322 323 323 324 324 324 323 324 325 325 324 323 322 321 321 320 320
325 323 324 327 328 329 329 328 327 327 326 325 321 315 312 311 310 312 314 314 314 314 314 315 317 319 322 321 318 317 317 316 316 318 320 321 320 320 322 323 324 323 321 320 321 321 322 323 323 323 323 323 324 325 325 324 322 321 322 320 319 319
324 323 325 327 328 329 329 328 327 328 325 321 317 313 310 310 311 313 314 314 314 315 316 317 317 318 319 319 316 316 318 317 316 317 318 319 318 320 322 323 323 322 320 320 320 321 322 323 323 323 323 324 324 324 325 325 322 322 321 317 316 315
323 323 325 327 328 329 329 328 327 325 322 320 317 312 310 309 311 313 314 314 315 316 317 318 318 317 317 316 316 317 318 317 315 315 316 317 318 320 322 322 321 319 318 319 320 321 323 323 323 323 323 323 323 323 324 324 323 322 318 312 311 312

ECMWFFLT2_850_thetae_036.txt.gz
Theta_e
335 335 334 332 330 325 323 327 329 329 329 329 329 328 328 331 332 334 334 333 331 330 329 329 329 328 328 327 325 324 323 323 322 322 322 321 320 320 318 320 327 330 330 331 332 331 329 327 329 328 327 328 328 327 326 326 325 323 320 319 318 316
335 335 334 332 329 324 325 329 329 330 330 329 329 327 327 329 331 333 333 331 330 329 328 327 326 326 325 325 323 323 323 322 322 321 321 321 320 320 319 319 322 326 328 331 332 332 330 329 329 329 329 329 329 328 328 327 327 325 324 323 321 318
335 335 333 331 328 324 326 330 329 330 330 329 329 326 324 327 330 331 331 329 328 327 326 325 325 324 324 323 323 322 321 321 320 319 319 319 319 319 320 319 319 319 323 329 332 332 331 329 330 330 330 330 329 328 329 328 328 327 325 325 322 319
335 334 333 330 327 325 328 330 330 330 329 329 328 325 323 326 329 329 328 327 326 325 324 325 325 324 324 323 322 321 320 319 318 319 318 318 318 318 318 319 319 318 319 325 331 332 331 331 331 331 330 330 329 329 328 329 328 327 326 324 321 318
335 333 331 329 325 325 329 330 330 330 329 328 327 325 325 326 327 327 326 325 325 324 325 325 325 323 322 322 321 320 319 319 318 318 318 318 318 318 318 318 319 319 319 323 329 331 332 332 332 331 330 329 329 329 328 328 328 328 326 323 318 316
334 332 330 328 325 327 330 330 330 330 330 328 326 326 326 326 326 326 325 325 325 325 326 326 325 322 321 320 319 319 319 319 320 319 319 318 318 317 317 317 318 320 319 321 326 330 332 332 332 331 330 329 329 329 328 329 328 328 326 322 318 315
330 329 329 326 325 328 330 330 331 330 330 328 326 326 326 326 326 326 326 326 327 327 327 326 325 323 322 321 321 321 322 323 323 323 322 320 319 318 317 317 319 320 320 322 325 329 332 332 331 330 330 329 329 329 329 329 328 327 324 321 317 314
328 327 327 325 326 329 330 330 331 330 330 328 325 326 327 327 327 326 327 327 328 328 327 327 326 325 324 324 324 324 324 325 326 326 325 323 321 320 319 319 321 323 324 324 326 329 331 331 331 331 330 330 329 329 329 329 329 327 323 319 316 314
327 327 325 325 327 329 330 331 332 330 330 328 325 327 328 328 327 326 327 327 328 327 326 327 326 325 325 325 325 325 325 325 326 326 326 326 324 323 322 321 323 326 327 327 327 329 331 331 330 330 330 329 329 329 329 330 329 325 322 319 316 314
326 326 326 327 328 329 331 331 331 330 330 328 325 327 328 328 327 326 326 327 327 327 326 326 326 326 326 326 325 325 325 325 325 326 326 326 326 325 325 324 325 327 328 327 327 328 330 330 330 330 329 328 328 330 330 329 327 324 322 320 316 315
330 327 325 327 329 330 331 331 330 329 329 327 325 327 328 328 328 327 326 326 326 326 326 325 325 326 326 326 326 325 325 324 324 325 325 325 326 327 327 327 326 327 328 327 327 327 328 329 329 329 328 327 328 330 330 329 327 325 324 321 317 315
332 327 325 328 330 331 332 330 328 328 328 326 324 326 328 329 329 328 327 326 325 325 324 324 325 326 326 326 326 325 325 324 323 324 325 325 325 326 327 328 328 328 328 327 327 327 328 328 328 328 328 328 328 329 329 329 328 326 324 321 318 315
330 325 326 329 331 332 332 330 327 327 327 324 324 327 328 329 329 328 327 326 326 326 325 325 325 326 326 326 325 324 324 324 323 323 325 325 324 325 326 327 328 328 327 327 327 327 327 327 327 328 328 328 329 329 329 328 327 326 324 321 318 317
328 326 327 329 331 332 331 330 328 327 326 324 324 327 328 329 329 328 327 327 327 327 326 326 326 326 326 326 325 324 324 324 324 323 323 323 323 324 324 325 326 327 327 327 327 327 326 326 327 328 328 328 328 328 329 327 326 325 323 322 320 320
330 328 328 330 332 332 332 331 329 327 326 324 326 328 328 328 329 328 328 328 329 328 327 326 326 327 327 326 326 325 325 325 325 324 323 323 323 323 324 324 325 326 326 326 327 326 326 326 327 327 327 328 328 328 328 326 325 325 324 323 323 323
330 327 328 331 333 332 332 331 329 328 326 325 327 329 329 328 329 329 329 329 328 327 326 325 326 327 327 327 326 325 325 325 326 325 323 322 322 323 324 324 325 326 326 326 326 326 325 325 326 327 327 327 328 328 327 326 326 326 325 325 325 324
327 325 329 332 333 333 332 331 329 329 327 327 328 329 329 328 328 329 329 328 327 327 326 326 326 327 328 328 327 326 326 326 326 326 324 322 322 323 324 324 324 325 326 325 325 325 325 324 325 327 327 327 327 327 327 326 327 327 326 325 325 325
328 328 331 333 333 333 332 331 330 329 329 329 330 330 329 328 328 329 329 327 328 328 327 327 327 328 328 328 328 327 327 327 326 326 324 322 322 322 323 323 324 324 324 324 323 325 325 324 325 327 327 327 327 327 327 327 327 327 326 326 326 326
332 332 332 333 334 333 332 331 330 330 330 331 331 330 328 328 329 329 328 328 328 329 328 328 327 327 328 329 328 328 328 328 327 326 325 323 322 322 322 323 324 323 323 324 324 325 325 325 326 327 326 326 327 327 326 326 326 326 326 326 326 326
333 334 333 333 334 333 332 331 330 330 331 331 331 330 328 329 330 329 328 327 327 329 329 328 328 328 329 329 329 328 328 328 327 326 325 323 322 322 322 323 324 323 323 324 324 325 326 325 325 325 325 325 325 325 325 325 325 325 325 325 325 325
334 334 334 334 334 333 332 330 329 330 330 330 330 328 328 329 329 327 327 326 326 327 327 327 328 329 329 329 328 327 327 327 327 326 325 324 322 322 322 323 324 324 323 324 324 326 326 325 323 323 324 325 325 325 325 325 325 325 325 324 325 325
335 335 335 334 334 332 330 329 328 329 330 330 330 329 329 329 327 326 326 326 325 325 326 326 326 327 328 328 327 326 327 327 327 327 325 324 323 322 322 323 324 324 324 324 324 325 326 324 322 322 323 324 325 325 326 325 324 324 325 325 325 325
336 335 335 334 333 331 329 328 328 329 330 330 330 329 329 328 326 325 325 325 325 324 326 325 324 325 326 326 326 326 327 326 326 328 326 324 324 322 322 323 324 324 324 324 325 325 324 323 322 323 323 324 325 326 325 324 323 323 323 324 323 323
336 335 335 334 334 331 329 329 329 330 330 330 329 328 327 326 324 323 324 324 324 325 325 324 324 325 325 326 326 326 327 326 326 328 326 325 324 322 322 323 324 324 324 324 324 324 324 323 323 323 323 324 325 325 325 323 322 322 322 323 323 322
336 334 334 333 332 329 328 329 330 331 331 330 328 327 326 324 322 323 324 324 325 325 325 324 324 325 325 325 326 326 326 326 325 326 326 325 325 323 322 323 324 324 324 324 324 324 324 325 325 324 324 324 325 325 324 323 322 322 323 323 323 323
335 334 333 331 329 327 328 330 330 331 331 328 327 326 325 322 321 323 324 324 325 325 325 324 325 325 325 325 326 326 326 326 325 325 325 324 324 324 322 322 324 324 324 324 325 325 325 325 326 325 324 324 324 324 324 323 322 323 323 323 323 324
335 333 331 329 327 328 330 330 330 331 328 326 326 326 324 321 320 322 325 325 325 325 324 324 324 324 325 325 326 326 326 326 325 325 325 324 323 324 323 322 323 324 324 324 325 326 326 326 326 325 324 324 323 324 323 322 322 323 323 323 323 323
335 332 329 327 328 330 331 331 331 330 326 324 326 325 322 320 320 322 324 325 325 324 324 324 323 324 324 325 325 325 325 324 325 325 325 324 324 324 323 322 323 324 324 323 324 326 326 326 326 325 325 324 323 324 324 323 322 322 322 323 324 323
334 331 328 328 331 332 332 332 331 328 325 325 327 325 321 320 320 322 324 325 325 324 324 323 323 323 323 323 323 324 323 323 323 324 324 324 324 323 321 321 322 323 323 323 323 324 326 326 326 325 325 325 324 324 324 323 322 322 322 322 323 322
333 330 329 331 333 333 333 332 330 326 325 326 327 324 321 320 321 322 322 323 323 323 323 322 322 322 321 321 322 322 322 322 322 323 323 323 322 322 321 321 322 322 322 322 322 322 324 326 326 325 325 325 324 324 324 323 323 323 322 322 322 322
332 330 330 332 332 332 331 330 327 325 326 327 326 324 321 321 321 321 320 318 318 319 319 319 319 320 320 320 320 321 321 321 322 322 322 322 322 321 321 322 322 322 322 322 322 321 322 324 325 325 326 326 325 323 323 323 323 322 322 322 322 321
332 330 330 332 331 330 329 327 326 326 327 326 324 322 321 321 321 319 317 315 314 314 314 315 316 316 316 317 318 320 320 321 321 321 322 323 323 322 322 322 322 323 323 324 323 322 322 323 323 324 325 326 325 324 323 323 322 322 321 321 321 321
332 329 330 331 330 328 327 327 327 327 327 325 323 321 320 321 319 316 316 316 315 315 315 315 316 315 315 315 317 319 319 319 319 319 320 322 323 324 324 324 324 324 324 324 324 324 323 323 322 322 324 325 325 324 324 323 322 322 322 321 321 321
331 328 329 330 327 326 327 328 328 327 326 325 325 321 320 321 319 315 317 318 318 318 317 317 317 317 316 315 315 315 316 316 317 318 319 321 322 322 322 323 324 325 324 322 323 324 324 324 323 322 323 325 324 324 324 324 323 322 322 321 321 320
329 328 330 329 325 325 327 328 328 327 326 326 326 322 320 320 318 316 318 318 317 317 317 317 318 318 318 316 314 312 313 314 315 318 320 321 321 320 320 322 323 324 322 320 322 323 322 323 323 323 323 324 324 324 324 324 323 323 322 321 321 320
329 328 330 328 325 326 328 328 328 327 327 326 326 324 320 319 318 315 316 316 316 315 315 316 318 318 317 316 313 311 312 314 315 317 319 320 320 319 320 321 323 323 320 319 320 321 321 321 322 323 323 323 324 324 324 324 324 323 322 321 320 319
330 330 330 327 324 326 327 329 329 328 327 326 326 324 320 317 316 314 314 315 315 315 316 316 317 316 314 313 312 312 312 313 314 315 316 318 318 319 321 322 322 322 319 319 320 320 320 321 322 322 322 323 323 324 324 324 324 322 321 321 319 318

ECMWFFLT2_850_thetae_042.txt.gz
Theta_e
335 335 335 334 334 330 324 324 326 326 327 330 330 328 327 326 326 328 330 331 331 331 332 332 331 331 330 329 331 332 333 330 327 323 316 317 323 327 329 328 326 326 330 331 330 329 329 329 327 326 326 325 327 330 330 329 330 329 329 324 315 311
336 336 336 335 335 328 325 328 328 328 330 331 332 331 330 329 331 332 332 332 332 332 333 332 331 331 330 331 331 330 330 328 324 322 318 317 320 325 328 329 328 328 329 330 329 329 329 329 329 327 326 327 329 330 330 330 330 330 330 327 316 308
337 336 336 335 335 329 328 331 330 331 332 332 333 334 333 332 333 334 333 333 333 333 333 332 332 332 331 330 328 325 324 323 321 321 320 319 319 322 326 328 329 329 329 329 330 331 330 330 329 328 327 329 329 329 330 330 330 330 330 330 323 313
337 336 336 336 335 331 330 332 333 333 332 332 334 335 335 333 334 334 333 333 333 334 334 332 333 332 330 327 324 322 321 321 321 321 320 319 319 320 322 325 327 329 330 330 332 334 333 332 330 329 329 330 327 327 330 329 330 330 330 330 327 323
338 337 336 336 335 332 330 332 334 333 332 333 333 334 335 333 334 333 332 334 335 336 335 332 331 329 326 324 322 321 322 321 320 320 319 319 319 320 322 324 325 328 330 332 334 334 334 333 331 330 330 329 326 327 329 329 330 329 329 329 327 328
339 339 337 335 334 332 329 331 333 333 332 334 334 335 335 334 334 333 334 335 334 334 333 330 327 326 324 322 321 321 323 321 319 319 320 321 320 322 327 328 327 328 330 331 334 334 334 334 332 330 329 328 326 327 329 329 330 329 327 326 325 327
339 339 336 335 334 331 330 332 334 334 335 337 336 337 336 335 335 335 335 332 331 332 330 327 325 324 322 321 321 321 323 323 323 321 320 321 320 324 328 329 329 329 330 331 333 334 334 333 332 332 329 327 326 327 329 329 330 330 328 325 323 324
338 338 336 335 333 332 332 332 332 333 334 334 334 335 337 336 336 334 332 330 330 330 327 325 323 321 320 321 322 322 324 324 324 321 319 321 322 324 327 327 328 329 329 331 333 333 333 333 332 332 329 327 327 327 328 329 329 330 330 328 326 324
337 337 336 336 333 332 332 331 331 331 330 329 330 333 334 334 333 331 328 328 328 327 325 323 322 320 320 323 324 324 326 326 325 323 321 321 322 322 323 326 328 329 330 331 333 333 332 333 332 330 329 329 328 328 328 328 329 331 330 329 328 325
336 337 337 336 334 332 333 334 333 331 328 327 328 329 331 331 330 328 327 327 327 326 325 323 323 322 323 325 326 326 327 327 326 325 325 324 323 323 323 326 327 329 330 331 333 332 332 333 332 331 330 330 329 329 329 329 330 332 331 328 327 325
336 337 337 335 334 332 334 335 333 331 328 327 327 327 329 329 328 327 327 328 327 327 326 324 325 324 324 326 326 325 325 325 324 325 327 326 326 327 326 326 326 330 331 332 332 332 332 332 332 332 330 330 330 330 330 329 330 331 331 330 328 328
336 337 337 335 333 333 334 334 332 330 328 327 327 328 328 327 327 328 328 328 328 327 326 325 325 325 325 325 325 324 324 324 324 324 326 327 328 329 328 325 325 330 332 332 332 332 332 332 332 332 331 331 330 331 331 330 331 331 331 331 330 329
337 336 336 335 333 333 334 333 331 332 329 326 327 328 328 328 328 329 328 328 328 327 327 326 326 326 326 325 325 325 325 325 324 323 325 328 329 330 328 326 326 330 333 332 332 332 332 332 332 332 331 330 330 331 331 331 331 331 330 330 331 330
336 336 336 335 332 332 333 332 331 332 330 326 327 329 329 328 328 328 328 328 328 328 327 326 326 326 327 327 326 325 327 327 325 324 325 327 328 329 328 328 329 331 332 332 332 332 332 332 331 332 331 329 329 331 331 330 330 329 330 330 330 329
336 336 335 334 332 331 333 332 331 332 329 326 328 330 329 328 328 328 328 328 328 327 327 326 326 327 328 328 327 326 327 328 326 324 325 327 327 328 329 330 331 332 332 332 332 331 331 331 331 331 331 329 330 330 330 330 329 329 330 328 327 328
335 335 334 334 330 329 331 331 331 331 329 327 328 329 329 329 329 327 326 327 327 326 327 327 327 328 328 328 328 328 328 327 325 325 325 327 328 328 328 330 332 332 332 332 330 329 329 331 331 331 330 330 330 330 329 329 329 329 328 326 326 327
336 334 333 333 329 327 330 331 331 331 329 327 328 330 329 330 330 327 326 327 326 327 328 328 328 328 327 328 328 328 328 326 325 325 324 325 327 327 326 328 330 330 330 329 328 327 328 330 331 330 330 330 330 329 329 329 328 328 327 328 328 327
336 334 333 332 328 326 330 331 331 330 329 327 328 330 330 331 330 327 327 327 327 328 328 328 328 327 326 326 327 327 326 325 325 325 324 324 326 326 326 326 327 328 328 327 327 328 329 330 330 330 329 329 329 329 329 328 327 328 328 328 329 328
335 334 332 330 326 327 330 331 330 330 329 328 328 329 329 330 329 327 328 328 327 327 326 327 327 327 326 326 327 327 325 325 325 325 324 325 326 326 325 326 326 326 327 327 328 329 330 330 330 329 329 329 329 329 328 328 328 328 328 328 328 328
334 332 331 329 327 328 330 330 330 330 329 328 329 328 329 331 331 329 328 328 326 325 326 326 327 326 326 327 327 326 326 325 326 326 325 326 327 326 325 326 327 326 326 326 327 328 329 329 329 329 329 329 329 329 328 328 329 328 328 328 327 327
333 331 331 330 327 328 331 330 330 330 329 328 328 329 330 332 331 329 328 327 326 326 327 327 327 327 325 327 328 327 326 327 327 325 324 326 327 326 325 326 326 326 325 325 325 326 328 329 329 329 329 329 328 328 327 327 327 327 327 327 327 327
332 331 331 329 328 329 331 331 330 330 329 328 328 330 330 330 329 328 327 327 327 327 328 327 328 328 326 327 328 328 327 327 327 326 324 325 327 327 326 325 326 326 325 325 325 326 328 329 328 328 329 328 328 328 326 327 327 326 327 327 327 328
332 332 331 329 328 329 331 331 330 330 329 328 329 330 330 329 328 328 328 328 328 328 328 328 328 328 328 327 328 328 327 327 328 327 325 323 326 327 325 324 325 326 326 325 326 328 328 329 328 328 328 327 328 328 327 326 327 326 327 327 327 328
333 332 331 330 329 329 330 330 330 330 329 329 328 329 330 329 328 329 329 328 328 328 328 329 329 329 329 328 328 328 327 327 328 328 325 323 324 325 323 324 324 326 327 327 327 329 328 329 329 328 328 328 327 327 328 327 327 327 327 327 327 328
333 332 331 330 329 330 331 330 331 331 330 329 329 329 330 330 329 329 328 328 327 327 327 328 328 328 330 329 328 327 326 327 328 327 326 324 324 324 324 325 325 326 327 326 327 327 326 328 329 328 327 328 327 327 327 327 327 326 326 327 326 326
333 332 331 330 328 329 331 331 331 331 330 329 330 330 330 330 330 329 328 328 327 325 326 327 327 328 329 328 328 327 326 326 327 327 326 325 325 324 325 327 327 327 327 327 327 326 325 327 328 327 326 327 328 327 327 326 326 326 326 326 326 326
334 332 332 331 329 329 331 331 330 331 330 330 331 331 330 330 329 328 328 327 326 326 326 326 326 327 328 327 328 328 327 326 327 327 326 325 325 324 326 329 329 329 329 329 329 328 326 326 326 325 325 326 326 327 327 326 326 326 326 326 325 325
335 333 333 333 331 329 331 332 331 330 330 331 331 330 330 330 329 328 326 326 325 326 325 326 326 326 326 327 327 328 327 327 327 327 326 326 325 324 326 330 330 330 331 330 329 329 328 327 327 326 324 326 327 327 328 328 327 326 326 327 325 324
335 334 334 334 332 331 331 331 331 330 330 331 331 330 329 329 328 326 326 325 325 326 326 326 325 324 325 325 327 328 328 327 327 327 327 327 325 324 326 328 327 328 330 330 330 330 329 328 328 327 325 326 328 328 328 328 327 326 326 326 325 325
334 334 335 334 333 333 332 331 331 330 330 331 330 329 329 327 325 324 325 325 325 326 325 325 324 323 323 323 325 327 327 328 327 326 327 326 325 325 325 324 323 325 327 329 330 330 331 329 328 328 327 327 328 327 327 327 327 326 326 326 326 325
334 334 335 334 333 334 333 331 330 328 330 331 329 329 328 326 324 326 327 326 325 325 325 324 323 323 322 322 323 325 326 328 327 326 326 326 325 325 324 323 322 324 324 326 329 330 330 329 327 327 328 328 327 327 326 327 326 326 326 326 325 325
333 334 334 334 333 333 333 331 330 327 328 330 328 325 324 322 322 326 329 327 325 326 326 324 322 322 322 321 322 322 323 326 326 326 326 326 325 325 325 323 322 323 324 325 327 328 329 329 326 327 328 328 327 327 326 326 326 325 325 326 325 325
333 334 334 334 333 333 332 331 328 326 327 329 327 322 320 320 321 324 328 328 326 327 328 326 324 323 321 320 320 320 321 322 323 324 325 326 326 325 325 324 322 323 324 324 325 325 327 329 327 328 329 328 327 327 326 326 326 325 325 326 325 325
333 334 334 334 333 331 330 329 328 327 328 328 326 322 319 320 322 324 327 327 325 327 327 324 322 322 320 319 319 320 319 319 321 323 324 325 325 324 324 324 323 322 323 325 324 324 325 327 327 328 329 328 327 327 327 326 326 326 326 325 325 324
332 332 333 333 332 329 327 327 327 328 329 328 325 323 319 318 321 323 323 322 322 324 324 322 321 320 319 318 318 319 318 318 319 321 322 323 325 324 322 323 325 324 323 325 324 323 325 326 327 328 328 328 327 327 327 326 326 326 325 325 325 325
328 330 332 333 332 327 325 327 326 327 329 327 325 324 320 317 318 317 318 320 321 323 324 322 320 319 318 318 318 318 318 318 318 318 319 320 324 325 322 323 327 327 326 326 325 324 326 327 327 326 326 327 328 327 327 326 325 325 325 324 324 324
329 331 332 332 331 326 324 325 324 326 329 326 324 323 318 316 316 314 316 319 320 320 320 318 317 318 318 318 318 318 317 318 317 317 318 318 321 324 323 324 328 329 328 327 324 324 326 327 328 326 325 326 327 327 327 326 325 325 325 325 324 323

ECMWFFLT2_850_thetae_045.txt.gz
Theta_e
337 336 336 336 334 330 324 322 322 322 324 327 330 331 331 330 329 326 325 324 326 330 331 330 329 328 328 329 333 333 331 328 326 321 319 322 325 325 326 328 328 328 328 328 328 328 326 324 322 320 321 324 327 331 332 331 331 330 327 319 311 309
338 337 337 337 335 331 325 325 326 326 326 326 328 330 329 328 327 326 324 324 328 331 331 331 331 330 330 331 333 333 331 329 327 323 318 318 323 326 327 329 329 329 329 329 329 328 327 325 323 322 323 326 329 332 331 331 331 331 329 320 309 308
339 338 338 338 335 329 324 326 327 328 330 329 328 328 328 329 330 328 326 327 329 332 331 331 331 331 332 333 333 332 330 326 323 321 319 318 319 324 328 329 330 330 330 330 330 330 329 327 324 323 326 330 331 332 331 331 331 331 331 324 312 310
338 339 338 338 335 326 325 329 330 331 332 332 331 329 330 332 333 329 328 330 330 332 332 331 332 332 333 333 331 328 325 322 321 320 320 319 319 321 325 328 330 330 331 331 331 332 331 328 328 327 329 332 332 332 331 331 330 331 331 327 319 314
337 337 337 338 336 328 330 334 333 334 333 334 334 332 334 334 333 331 331 332 331 331 332 332 332 333 334 331 325 322 322 322 320 320 320 321 320 319 322 327 328 329 331 332 331 332 330 330 332 333 333 333 332 331 331 331 329 330 330 326 322 322
337 335 336 338 337 334 335 335 334 335 334 336 336 334 335 334 334 334 333 332 332 332 332 332 332 333 333 329 325 325 328 328 324 322 326 328 325 321 326 330 329 329 331 330 330 331 331 331 333 333 333 332 332 332 332 331 329 330 330 324 322 326
337 336 337 337 337 336 336 335 334 335 334 334 334 334 334 334 335 334 332 332 332 331 331 332 333 333 332 330 330 330 331 331 329 328 330 332 329 327 330 331 330 330 331 330 330 330 331 332 333 332 333 332 332 333 332 332 331 329 329 324 322 326
337 337 338 338 337 337 335 335 334 333 333 332 332 333 333 334 334 333 332 332 331 331 330 331 333 333 332 332 332 332 332 332 332 331 331 331 330 330 332 331 330 331 331 331 332 331 331 332 333 332 332 332 332 333 333 333 332 330 330 329 324 324
337 337 338 337 336 337 335 334 334 332 333 334 333 333 333 332 332 332 333 332 331 331 331 331 332 332 332 331 331 332 333 333 333 332 332 332 332 331 332 332 331 332 332 332 332 332 332 332 332 332 332 332 332 333 333 332 331 330 331 332 328 324
338 337 337 336 335 338 336 333 333 332 333 334 333 332 333 333 331 331 331 332 333 332 332 332 332 331 331 330 330 331 333 333 333 332 332 332 331 332 332 332 332 332 332 332 332 332 332 332 332 332 332 332 332 332 332 332 331 330 329 331 330 325
338 336 335 336 336 338 336 333 333 334 333 334 333 330 330 332 332 330 330 333 334 333 333 332 331 331 330 327 328 331 332 333 332 331 331 331 330 331 332 332 332 332 331 332 332 331 331 332 332 331 332 331 331 331 331 331 331 330 329 330 330 326
338 336 335 336 337 336 336 335 336 336 334 334 334 331 332 334 333 331 330 332 332 332 334 331 329 330 328 327 329 331 333 332 331 330 330 330 330 331 333 333 332 332 332 331 331 331 331 332 331 331 331 331 331 331 330 330 330 330 330 329 329 328
337 337 336 335 336 335 335 336 336 336 335 334 333 333 334 335 334 332 331 331 329 331 333 329 327 328 328 329 330 329 329 330 330 329 329 329 329 331 333 334 332 332 333 332 331 331 332 331 331 330 331 331 330 330 330 330 330 330 330 329 329 329
336 336 336 333 334 334 334 335 335 335 334 332 331 333 334 334 334 333 332 331 329 331 331 327 326 327 330 330 327 326 327 328 327 326 327 328 330 331 333 333 331 332 332 331 332 332 332 331 329 330 331 331 330 330 330 330 330 330 329 329 329 329
334 333 334 334 334 333 333 334 335 334 332 330 332 334 334 334 334 333 334 333 330 331 331 329 327 327 331 330 326 327 329 329 326 324 327 328 330 332 332 332 331 331 330 331 332 331 331 330 329 329 329 330 331 330 329 330 330 328 328 329 328 328
333 333 335 335 335 334 333 333 333 334 332 330 332 334 334 335 334 333 334 334 332 332 333 332 330 329 331 331 330 330 331 330 326 326 328 328 330 333 332 332 332 331 330 330 331 330 331 330 329 329 328 330 331 329 328 328 327 327 327 328 328 328
332 334 336 335 335 334 333 332 332 334 332 331 333 334 334 334 334 334 334 335 335 332 333 333 331 331 331 333 333 332 332 328 325 328 328 327 331 333 332 332 332 331 330 329 330 331 330 329 329 329 329 330 329 328 328 326 327 327 326 326 326 326
333 334 334 334 335 334 332 332 332 333 333 332 333 333 333 333 333 335 334 335 335 331 333 334 332 332 331 333 334 334 332 326 325 328 327 328 332 332 331 332 331 331 331 330 331 331 330 330 329 328 329 329 328 327 328 327 327 327 326 326 327 326
333 333 333 334 335 333 332 331 330 333 333 331 333 333 333 333 333 334 334 336 334 329 332 334 332 332 332 333 334 334 332 326 326 327 327 330 332 332 331 332 331 330 331 332 332 331 330 330 330 329 329 329 328 327 327 327 327 327 327 328 327 327
333 333 334 335 335 333 331 329 329 332 332 330 332 333 333 334 334 335 335 335 333 329 333 334 332 333 332 332 334 334 331 326 326 326 326 330 332 332 330 330 330 330 332 333 331 331 329 329 330 329 329 329 328 328 327 327 327 327 328 327 328 329
333 333 335 335 334 333 330 328 328 332 332 331 333 333 333 334 334 335 334 334 332 330 333 332 331 334 332 332 334 333 329 325 326 327 327 329 331 332 329 326 328 329 331 331 331 330 328 329 329 328 328 329 329 329 328 327 327 328 327 328 329 329
333 334 336 335 333 332 330 328 328 332 332 331 333 334 332 333 334 334 333 335 333 331 333 332 331 334 332 332 334 331 327 326 327 328 328 328 330 330 327 326 327 327 329 331 331 330 328 328 329 328 328 328 328 328 328 328 328 329 328 327 329 328
334 334 335 335 334 331 329 328 329 332 332 331 332 332 331 331 332 332 332 334 333 330 332 332 332 333 330 331 334 331 326 326 328 328 327 327 328 328 327 326 327 327 329 331 331 328 327 328 330 329 328 329 328 328 328 329 329 328 327 327 328 329
335 335 335 334 333 330 328 328 330 331 331 332 331 330 331 330 330 331 331 333 333 329 330 331 332 333 330 331 333 330 327 326 329 328 326 328 329 328 328 327 328 329 330 332 331 328 327 328 329 329 329 330 329 328 328 328 328 328 328 328 328 328
336 335 335 334 331 329 329 328 330 331 331 331 330 329 331 330 329 330 330 331 331 329 329 332 334 332 331 332 331 328 327 326 328 328 326 329 330 330 329 327 328 330 330 331 331 328 327 327 328 328 329 329 328 329 329 328 328 328 328 328 328 327
335 335 334 333 332 330 330 329 330 331 331 329 328 327 328 329 329 328 328 329 330 329 329 330 332 332 332 333 331 329 328 327 327 327 326 329 330 329 329 329 329 331 330 331 331 328 327 328 329 328 328 328 327 328 328 327 328 328 328 328 327 327
333 334 333 332 332 330 330 329 330 331 330 329 328 327 327 328 328 327 327 329 330 330 329 329 329 331 332 332 331 330 328 326 326 326 326 330 331 329 330 331 330 331 331 331 331 330 329 329 329 328 327 326 326 327 327 327 328 327 328 328 327 326
334 334 333 333 332 331 330 330 330 330 330 330 329 328 328 327 326 326 326 329 330 329 328 328 328 329 331 331 330 329 328 327 327 326 327 331 332 330 330 331 329 329 331 330 330 330 330 330 328 327 327 325 325 327 327 326 326 326 327 328 327 327
335 333 333 333 332 332 332 330 330 330 330 330 329 329 328 325 325 324 324 328 330 328 327 326 327 329 330 330 330 329 328 328 328 328 329 331 332 330 330 331 329 329 331 330 330 330 330 330 328 328 329 326 326 328 327 326 326 326 326 326 327 327
333 333 334 333 332 331 331 330 330 330 330 329 327 328 328 326 324 324 326 329 329 328 327 325 325 326 327 329 330 329 328 328 327 328 329 331 332 330 330 331 330 330 331 329 329 330 329 329 328 328 328 327 328 328 327 327 326 326 326 325 326 326
330 332 334 333 332 331 330 330 330 330 330 328 327 328 328 326 324 326 329 329 327 327 327 325 324 322 323 327 329 330 330 329 328 327 328 331 333 331 330 331 330 329 329 327 328 329 328 328 328 328 327 327 328 328 327 327 327 326 327 326 326 326
328 333 334 333 333 331 330 331 331 330 329 327 327 327 326 325 326 329 330 328 327 327 326 325 324 321 321 323 325 328 330 330 329 328 328 330 333 332 331 331 331 329 329 328 328 328 328 327 327 327 327 326 327 327 327 327 326 326 326 326 326 326
329 334 335 333 332 332 331 331 330 329 326 325 325 325 324 326 328 329 328 327 327 326 325 325 324 322 322 322 322 325 327 329 329 328 328 329 330 332 332 331 331 330 329 329 328 327 326 326 326 326 325 326 327 327 327 327 326 326 325 325 326 326
333 334 334 332 332 333 333 331 329 327 324 323 323 323 324 326 329 330 327 325 325 324 325 325 322 322 323 322 321 321 323 325 326 327 328 328 328 329 330 331 331 330 328 329 329 328 326 325 325 324 322 325 327 327 327 326 325 325 325 324 325 325
334 334 334 333 333 333 332 330 328 324 322 322 323 323 324 326 329 329 324 322 324 326 327 326 325 324 323 321 320 321 321 321 322 324 326 328 327 328 327 328 330 329 328 328 329 329 326 325 325 323 323 325 327 327 327 326 325 325 325 325 325 325
335 334 334 334 333 332 330 328 326 322 322 323 323 323 325 326 328 327 324 323 326 329 329 328 328 325 321 317 317 320 320 320 321 322 324 326 327 327 326 327 329 328 328 329 329 328 327 327 326 325 325 326 326 327 327 326 325 325 325 325 326 325
335 334 334 333 333 332 330 329 325 322 322 322 322 323 325 327 328 327 327 326 328 330 329 328 328 326 321 316 316 318 318 318 320 319 321 322 324 326 325 326 328 328 328 329 328 327 327 327 327 326 326 327 326 326 326 326 326 325 325 325 325 325

ECMWFFLT2_850_thetae_048.txt.gz
Theta_e
332 332 333 332 326 321 319 318 319 322 326 330 331 332 334 334 333 332 332 331 332 333 332 331 327 327 330 328 329 327 319 321 324 322 324 328 329 329 328 327 328 327 326 326 324 322 320 320 322 326 329 330 331 332 331 331 329 323 313 308 308 307
335 335 335 334 328 321 319 319 320 325 329 332 333 333 333 333 332 331 330 330 331 333 332 330 328 328 328 328 330 329 325 324 322 319 322 327 328 328 328 328 327 327 326 326 325 323 322 322 322 325 326 328 331 332 332 331 330 326 315 308 308 307
337 337 336 335 329 321 320 320 321 327 330 332 333 333 332 332 332 330 329 330 332 333 331 330 331 330 329 331 333 332 329 326 323 318 318 324 328 328 328 328 328 327 327 327 326 324 323 323 325 328 327 328 331 331 331 331 330 328 320 311 309 309
338 338 336 335 331 323 321 322 323 327 330 331 332 331 332 332 331 330 328 329 331 332 331 331 332 332 332 333 334 332 328 323 321 319 316 320 326 328 329 329 329 328 327 327 328 327 325 325 326 331 330 329 331 331 331 331 330 328 322 317 315 314
339 338 338 336 332 324 324 326 326 328 330 330 329 331 332 331 331 329 327 326 329 331 331 331 332 332 333 334 333 329 324 321 320 320 317 318 321 325 327 329 329 328 327 328 330 329 328 327 329 333 333 332 332 331 331 331 331 327 322 323 323 319
339 339 338 337 331 325 326 328 329 331 331 330 330 331 331 329 330 328 326 326 328 331 331 331 331 332 333 332 328 323 322 321 320 321 320 318 319 321 324 326 327 328 330 329 330 331 330 329 332 334 333 332 332 331 331 330 330 327 323 323 325 325
339 339 338 336 329 325 328 330 331 334 333 331 331 332 330 329 330 328 327 329 330 331 331 331 331 333 333 330 325 324 326 324 322 325 324 322 322 322 326 329 326 326 331 330 329 331 331 331 332 333 332 332 331 331 331 330 329 328 325 323 324 326
339 338 338 336 330 327 332 334 334 335 334 333 331 331 331 330 330 329 329 331 331 331 331 331 331 332 332 330 330 329 331 330 328 329 329 329 328 327 330 332 328 327 330 330 329 331 332 332 332 332 331 331 331 332 331 331 329 328 328 324 323 323
339 338 338 338 333 332 335 335 335 336 335 334 332 331 331 332 332 331 331 331 331 331 331 331 331 332 331 331 333 332 332 332 331 331 330 330 330 330 331 332 331 330 331 330 330 331 332 332 331 331 331 330 331 331 332 332 329 329 330 327 323 319
338 338 338 337 336 335 335 334 335 336 335 334 331 329 330 332 332 332 332 330 330 330 330 331 332 332 331 332 333 332 332 332 333 332 332 331 331 332 332 332 332 331 331 331 331 331 331 331 330 331 330 330 330 331 332 331 330 330 330 330 326 318
337 338 337 337 336 335 335 335 335 335 335 334 331 330 330 331 332 332 331 330 330 329 329 330 332 332 333 333 331 332 333 333 333 332 332 333 333 332 332 332 332 332 331 331 332 331 331 331 330 331 330 330 330 331 331 331 330 330 330 330 327 318
338 338 337 335 335 335 334 334 334 333 334 334 333 333 332 331 332 332 331 330 329 328 329 330 332 333 332 331 330 332 333 333 333 331 331 332 332 332 332 333 333 332 331 331 331 330 331 331 330 331 331 330 329 330 331 331 329 328 328 329 327 320
338 338 337 335 335 335 335 334 332 333 334 333 333 333 332 332 330 330 330 330 328 328 330 330 332 333 331 329 330 332 333 333 332 330 331 331 330 332 332 333 333 333 332 331 330 330 331 331 330 331 330 330 330 330 330 330 329 327 327 328 327 323
338 337 336 335 334 335 334 332 331 333 333 332 333 332 332 331 329 329 329 329 329 328 329 329 331 332 330 330 332 333 333 332 332 329 329 329 330 331 332 333 333 333 332 331 331 331 331 330 330 330 330 330 330 330 330 329 329 328 327 328 328 325
338 337 336 335 335 334 333 332 331 333 333 332 333 332 331 332 330 329 328 329 329 327 327 329 331 330 329 331 331 331 332 332 329 327 328 328 330 332 332 333 332 332 332 331 331 331 331 330 330 330 330 330 329 329 329 328 328 329 328 328 328 326
337 337 336 336 335 334 333 333 332 332 332 331 332 331 331 332 331 329 328 329 329 328 330 330 328 327 326 328 327 327 330 331 327 325 327 328 331 332 331 332 331 331 331 331 332 331 331 330 329 329 330 330 329 329 329 328 327 328 328 328 328 327
335 336 336 336 336 335 333 333 332 332 331 330 330 331 331 331 330 328 328 330 330 332 332 328 326 326 327 327 328 329 331 331 327 325 327 328 332 332 331 331 331 330 331 331 332 331 330 330 330 329 329 330 329 329 329 328 326 326 327 327 327 328
334 335 335 336 336 334 333 332 333 333 332 331 330 330 331 330 329 329 330 331 331 332 331 327 326 328 328 329 331 331 332 331 327 326 327 328 332 332 331 331 331 330 330 330 330 329 329 329 330 329 328 329 329 329 328 327 327 326 326 326 326 327
335 334 334 335 336 335 334 333 333 333 333 332 333 333 332 330 329 331 333 332 331 331 331 329 328 329 329 330 332 332 332 329 326 327 328 329 332 332 331 331 331 330 329 329 329 329 329 330 330 329 329 328 328 328 328 327 326 326 325 325 326 326
335 334 334 335 336 335 334 333 332 333 332 332 333 334 333 332 332 333 333 333 332 330 331 330 328 329 330 331 333 332 332 328 325 327 328 329 332 332 330 329 330 330 329 330 330 330 330 330 330 330 329 328 328 328 327 327 327 326 326 326 326 325
336 334 334 335 336 335 334 333 332 332 331 331 333 333 333 332 332 333 332 332 331 330 332 332 329 330 330 331 333 332 330 328 327 327 328 330 332 332 329 328 329 329 329 330 331 331 330 330 330 329 329 329 328 328 327 327 327 327 326 326 327 325
336 335 335 335 336 335 334 333 332 331 331 331 333 333 332 332 332 332 331 331 330 328 330 332 331 331 330 331 332 330 328 328 328 327 328 329 330 330 329 327 328 328 329 331 331 330 330 330 330 329 328 328 329 328 328 328 328 327 327 327 327 327
335 336 336 335 335 335 334 333 332 331 331 331 332 333 332 332 333 332 330 330 329 327 328 331 332 331 330 330 330 328 328 328 328 329 329 328 329 330 328 328 329 328 329 331 330 330 330 330 330 329 329 328 329 329 328 329 329 328 328 327 328 328
336 336 335 335 335 335 334 333 331 330 331 330 331 333 332 332 333 331 330 329 327 327 328 330 330 330 330 329 329 329 327 328 329 330 329 327 328 329 328 328 329 329 330 331 330 329 329 330 330 330 330 329 329 328 329 329 329 329 328 328 328 328
337 336 336 336 335 335 334 333 331 330 331 331 331 332 332 331 331 330 329 326 324 326 327 329 330 330 330 330 330 328 327 328 330 330 329 327 327 329 328 328 329 328 330 331 330 328 328 330 330 330 330 330 329 329 328 328 328 328 328 328 328 327
337 336 336 335 335 335 334 332 330 329 331 332 331 331 330 330 329 327 326 325 324 327 327 330 332 331 330 330 330 328 327 328 329 329 327 326 327 329 329 330 329 329 330 331 329 327 328 329 329 329 329 329 329 329 328 327 328 328 327 327 327 327
335 334 334 335 334 333 333 332 330 329 330 331 330 330 328 328 328 326 326 325 326 328 328 330 332 331 330 330 329 329 329 328 328 329 327 326 328 329 330 331 330 330 330 331 329 327 327 327 328 328 328 328 328 328 328 328 328 327 327 327 327 326
334 331 331 333 333 331 330 330 330 329 329 330 331 330 328 328 328 327 326 327 327 328 329 330 331 332 331 330 329 330 330 329 329 329 327 326 327 329 331 331 331 330 329 329 330 328 326 326 327 327 327 327 326 327 328 328 328 327 327 327 327 326
332 328 328 330 330 331 330 329 329 329 329 330 330 329 327 327 327 327 327 327 328 329 330 331 331 332 332 330 329 329 329 328 328 328 327 327 328 329 330 331 331 331 329 329 328 328 327 327 327 326 326 326 326 328 328 327 328 327 326 326 327 326
331 328 327 329 329 330 331 330 329 329 328 328 328 327 327 326 326 327 327 327 328 329 330 331 331 331 331 330 330 329 329 328 328 327 327 330 330 330 329 330 331 330 329 329 327 327 328 328 327 327 326 325 326 328 327 326 327 327 327 326 326 327
330 327 328 330 329 327 327 328 329 329 328 325 325 327 328 328 327 327 326 326 327 329 330 330 330 330 330 330 330 329 329 329 329 328 328 331 331 331 329 329 330 329 328 329 328 328 329 329 328 327 327 326 326 328 327 326 327 327 327 326 326 327
330 327 328 329 329 327 326 328 329 330 328 324 324 326 328 327 326 325 324 324 326 328 330 330 328 327 327 328 329 329 329 330 330 329 330 331 331 331 330 328 329 329 327 327 328 329 329 329 329 328 327 326 326 327 327 326 327 326 326 326 326 326
330 329 327 327 329 329 328 329 329 330 328 326 325 325 326 327 326 325 323 325 326 327 329 329 326 325 324 326 328 329 329 330 330 329 329 331 331 331 331 329 329 328 327 327 327 327 328 329 329 328 327 326 327 327 327 326 326 326 326 326 326 326
332 329 327 326 329 331 329 329 330 329 329 328 326 325 325 328 327 325 324 326 326 327 329 328 325 324 322 323 325 327 329 330 331 329 328 329 330 331 331 330 329 328 327 327 327 327 327 328 328 327 327 326 326 327 327 326 326 326 326 326 326 325
332 329 327 326 329 331 331 330 330 330 329 329 327 324 325 327 326 324 324 325 326 329 330 327 325 324 322 322 322 324 326 328 329 328 328 328 329 329 330 329 330 329 327 327 327 327 327 327 327 326 326 326 326 327 327 326 326 325 325 326 326 325
333 329 327 328 330 331 331 330 330 330 329 328 327 324 323 323 323 323 323 324 326 329 330 327 325 323 321 322 322 321 322 324 324 325 326 326 328 328 328 329 330 330 328 328 328 327 327 327 325 325 325 325 324 326 327 326 326 325 324 325 325 324
332 330 329 330 332 332 332 330 330 330 329 327 325 322 321 321 322 322 322 324 327 329 329 327 325 323 322 323 322 320 321 321 321 322 323 325 326 328 328 328 328 329 328 327 327 328 328 326 324 323 324 323 322 324 326 326 326 325 324 324 325 324